[[{"header":{"parameterUnit":"m.s-1","parameterCategory":1,"la1":30.2991,"la2":30.254,"lo1":-89.0895,"lo2":-89.0444,"dy":0.0017,"dx":0.0017,"nx":28,"ny":28,"refTime":"2023-09-05T09:00:00:Z","depth":0,"parameterNumber":2,"parameterNumberName":"U-component_of_WINDS"},"data":[0,0,0,0,0,0,0,0,0,0,0,0,0,0,0,0,0,0,0,0,0,0,0,0,0,0,0,0,0,0,0,0,0,0,0,0,0,0,0,0,0,0,0,0,0,0,0,0,0,0,0,0,0,0,0,0,0,0,1.2253,1.2254,0,1.2333,1.2334,1.2335,1.2342,1.2341,1.234,1.234,1.2422,1.2425,1.2428,0,0,0,0,0,0,0,0,0,0,0,0,0,1.2104,1.2107,1.2253,1.2254,1.2255,1.2333,1.2334,1.2335,1.2342,1.2341,1.234,1.2339,1.2421,1.2425,1.2428,0,0,0,0,0,0,0,0,0,0,0,0,0,1.2175,1.2108,1.2252,1.2268,1.227,1.2333,1.2334,1.2336,1.2343,1.2341,1.234,1.2339,1.242,1.2424,1.2429,1.2482,0,0,1.2442,1.2444,0,0,0,0,0,0,0,0,1.2171,1.2181,1.2264,1.2267,1.2269,1.2326,1.2312,1.2385,1.2343,1.2315,1.234,1.2338,1.2391,1.2398,1.2416,1.2486,1.2489,1.2443,1.2445,1.2447,1.2449,0,0,0,0,0,0,0,1.2166,1.2177,1.2284,1.2266,1.2269,1.227,1.2279,1.2326,1.2359,1.2317,1.2318,1.2327,1.2392,1.2411,1.2418,1.249,1.2443,1.2447,1.2449,1.2451,1.2607,1.2608,0,0,0,0,0,0,1.2159,1.2173,1.2282,1.2287,1.2216,1.2274,1.2284,1.2309,1.2359,1.2365,1.2328,1.2327,1.2404,1.2413,1.2421,1.2485,1.2447,1.2451,1.2454,1.2605,1.2607,1.2609,0,0,0,0,0,0,1.2155,1.2168,1.2279,1.223,1.2244,1.2278,1.2307,1.2312,1.2331,1.2367,1.2373,1.2342,1.2404,1.2414,1.2466,1.2488,1.2453,1.2458,1.2604,1.2606,1.2608,1.2615,0,0,0,0,0,0,1.2151,1.2167,1.2188,1.2231,1.2247,1.2323,1.2308,1.2314,1.2339,1.2338,1.2381,1.2387,1.2404,1.246,1.2471,1.2494,1.2461,1.2602,1.2605,1.2607,1.2613,1.2617,1.2621,0,0,0,0,0,1.2146,1.2187,1.2189,1.2202,1.2274,1.2324,1.2334,1.2351,1.234,1.2361,1.2384,1.2386,1.2484,1.2465,1.2477,1.2502,1.26,1.2604,1.2607,1.2611,1.2616,1.2621,0,0,0,0,0,0,1.2146,1.2193,1.2195,1.2252,1.2284,1.2325,1.2352,1.2357,1.2393,1.2391,1.2411,1.2421,1.2472,1.2492,1.247,1.2556,1.2541,1.2547,1.254,1.2545,1.2549,1.2542,1.2465,0,0,0,0,0,1.2152,1.219,1.2229,1.2275,1.2291,1.2319,1.2342,1.2352,1.2387,1.24,1.2427,1.246,1.2499,1.2523,1.2561,1.2616,1.2625,1.264,1.2643,1.2647,1.2651,1.2681,1.2687,1.2619,1.2619,1.2619,0,0,1.2166,1.2197,1.2219,1.2275,1.2302,1.2339,1.233,1.2371,1.2399,1.2406,1.2457,1.2478,1.2516,1.257,1.2595,1.2588,1.2672,1.2651,1.2653,1.2656,1.2685,1.2691,1.2697,1.2622,1.2621,1.2621,0,0,1.2211,1.2238,1.2278,1.2305,1.2344,1.2363,1.2372,1.2413,1.2428,1.2478,1.2484,1.2518,1.2584,1.2611,1.2633,1.2686,1.2689,1.2698,1.2718,1.2747,1.2752,1.2757,1.2775,1.2781,1.2703,1.2703,1.2703,0,1.2223,1.228,1.2299,1.2339,1.2363,1.2372,1.2412,1.2437,1.2487,1.2503,1.2496,1.2578,1.2604,1.2663,1.2676,1.2695,1.2706,1.2693,1.275,1.2755,1.276,1.2777,1.2784,1.2704,1.2703,1.2703,1.2703,0,1.2292,1.2332,1.236,1.2407,1.2435,1.2475,1.2499,1.2525,1.2534,1.2552,1.2604,1.2636,1.2679,1.2694,1.2703,1.2755,1.2749,1.2746,1.2731,1.2767,1.2783,1.279,1.2705,1.2704,1.2704,1.2704,0,0,1.2338,1.2395,1.2405,1.2426,1.2471,1.2501,1.2542,1.2584,1.2605,1.2639,1.2673,1.2728,1.2725,1.275,1.2762,1.2788,1.2827,1.2781,1.2782,1.2787,1.2884,1.2885,1.2893,1.2829,1.283,1.2831,1.288,0,1.2386,1.2458,1.2476,1.2537,1.2573,1.2582,1.2617,1.2648,1.2667,1.27,1.2721,1.2759,1.2753,1.2768,1.2793,1.2816,1.2846,1.2813,1.286,1.2861,1.2848,1.2902,1.2904,1.2948,1.2887,1.2888,1.2889,0,1.2452,1.2487,1.2552,1.259,1.2606,1.2637,1.2677,1.2709,1.2744,1.2756,1.2784,1.2793,1.2835,1.2819,1.2877,1.2854,1.2875,1.2889,1.2891,1.2895,1.2876,1.2906,1.2963,1.2969,1.29,1.2899,1.2898,0,1.2477,1.2541,1.2587,1.2605,1.2652,1.2674,1.2694,1.2728,1.2752,1.2787,1.2802,1.2842,1.2863,1.2893,1.2913,1.29,1.2968,1.2955,1.2979,1.2978,1.2992,1.299,1.3051,1.3007,1.3007,1.3007,1.3007,0,1.2528,1.2567,1.2599,1.2627,1.2671,1.2691,1.2734,1.2755,1.2784,1.2817,1.2827,1.2857,1.2882,1.2916,1.2932,1.2976,1.2986,1.2996,1.3,1.2995,1.2993,1.3007,1.3004,1.3008,1.3008,1.3008,1.3007,0,1.2563,1.2586,1.2637,1.2677,1.2688,1.2718,1.2753,1.278,1.28,1.284,1.2851,1.2881,1.2921,1.2944,1.2995,1.3005,1.3054,1.3057,1.3042,1.3043,1.3066,1.3063,1.3137,1.3147,1.3097,1.3097,1.3098,0,1.2593,1.2623,1.2666,1.2689,1.2709,1.2745,1.277,1.2791,1.2816,1.2857,1.288,1.292,1.2954,1.3017,1.3043,1.3082,1.3085,1.3108,1.309,1.3084,1.3083,1.3081,1.3083,1.3111,1.3111,1.3111,1.3112,0,1.2644,1.2654,1.2688,1.2727,1.2756,1.2787,1.2818,1.2836,1.2862,1.289,1.293,1.2956,1.3007,1.3047,1.3088,1.3109,1.3114,1.3117,1.3125,1.3119,1.3108,1.3113,1.3049,1.3115,1.3115,1.3115,1.3114,1.3114,1.2677,1.2703,1.2737,1.2775,1.2801,1.283,1.2858,1.288,1.2914,1.2957,1.2968,1.301,1.3044,1.3099,1.3121,1.3155,1.3151,1.3162,1.3164,1.3166,1.3166,1.3104,1.3162,1.3162,1.3162,1.3162,1.3162,0,1.2727,1.2749,1.2784,1.2827,1.2857,1.286,1.2894,1.2919,1.2956,1.2987,1.302,1.3066,1.3105,1.3134,1.3173,1.3194,1.3198,1.3204,1.3202,1.3206,1.3168,1.3157,1.32,1.32,1.32,1.32,1.32,1.32,1.2756,1.2801,1.2815,1.2872,1.2894,1.2936,1.2955,1.2982,1.3006,1.3057,1.3089,1.3108,1.3138,1.318,1.3215,1.3223,1.3236,1.3242,1.325,1.3213,1.3209,1.3205,1.3195,1.3245,1.3245,1.3285,1.3285,1.3285]},{"header":{"parameterUnit":"m.s-1","parameterCategory":1,"la1":30.2991,"la2":30.254,"lo1":-89.0895,"lo2":-89.0444,"dy":0.0017,"dx":0.0017,"nx":28,"ny":28,"refTime":"2023-09-05T09:00:00:Z","depth":0,"parameterNumber":3,"parameterNumberName":"V-component_of_WINDS"},"data":[0,0,0,0,0,0,0,0,0,0,0,0,0,0,0,0,0,0,0,0,0,0,0,0,0,0,0,0,0,0,0,0,0,0,0,0,0,0,0,0,0,0,0,0,0,0,0,0,0,0,0,0,0,0,0,0,0,0,2.0591,2.0592,0,2.0696,2.0697,2.0699,2.0709,2.0707,2.0706,2.0705,2.0809,2.0813,2.0816,0,0,0,0,0,0,0,0,0,0,0,0,0,2.0396,2.0399,2.0591,2.0593,2.0594,2.0696,2.0698,2.0699,2.0709,2.0707,2.0706,2.0705,2.0808,2.0812,2.0817,0,0,0,0,0,0,0,0,0,0,0,0,0,2.0488,2.04,2.0591,2.0611,2.0614,2.0696,2.0698,2.0699,2.0709,2.0707,2.0706,2.0704,2.0806,2.0812,2.0817,2.0885,0,0,2.0835,2.0837,0,0,0,0,0,0,0,0,2.0483,2.0496,2.0607,2.061,2.0613,2.0688,2.0667,2.0761,2.0709,2.0673,2.0705,2.0703,2.077,2.0778,2.0801,2.089,2.0894,2.0835,2.0839,2.0841,2.0843,0,0,0,0,0,0,0,2.0477,2.0491,2.0633,2.0608,2.0612,2.0614,2.0625,2.0685,2.0729,2.0676,2.0677,2.0689,2.0771,2.0796,2.0804,2.0896,2.0835,2.084,2.0844,2.0846,2.1045,2.1046,0,0,0,0,0,0,2.0467,2.0486,2.0629,2.0636,2.0543,2.0619,2.0631,2.0665,2.0728,2.0737,2.0691,2.0689,2.0787,2.0797,2.0808,2.0891,2.0841,2.0846,2.085,2.1043,2.1045,2.1047,0,0,0,0,0,0,2.0463,2.048,2.0625,2.0561,2.058,2.0624,2.0662,2.0668,2.0693,2.074,2.0747,2.0708,2.0786,2.08,2.0866,2.0894,2.0849,2.0854,2.104,2.1043,2.1046,2.1058,0,0,0,0,0,0,2.0457,2.0478,2.0505,2.0562,2.0583,2.0683,2.0664,2.0672,2.0703,2.0703,2.0758,2.0766,2.0786,2.0857,2.0872,2.0901,2.0858,2.1038,2.1042,2.1045,2.1055,2.106,2.1065,0,0,0,0,0,2.045,2.0504,2.0507,2.0524,2.0618,2.0684,2.0697,2.072,2.0706,2.0733,2.0762,2.0764,2.0889,2.0864,2.088,2.0912,2.1036,2.1041,2.1045,2.1052,2.1059,2.1065,0,0,0,0,0,0,2.0448,2.0511,2.0515,2.0589,2.0631,2.0686,2.0721,2.0727,2.0773,2.077,2.0796,2.0809,2.0874,2.09,2.0871,2.0981,2.0961,2.0969,2.0961,2.0968,2.0973,2.0966,2.0863,0,0,0,0,0,2.0456,2.0506,2.0558,2.0618,2.0639,2.0677,2.0706,2.0721,2.0765,2.0783,2.0817,2.0859,2.0908,2.094,2.0987,2.1059,2.107,2.1089,2.1094,2.1098,2.1104,2.1143,2.1151,2.1061,2.1061,2.1061,0,0,2.0474,2.0514,2.0544,2.0619,2.0653,2.0703,2.0691,2.0745,2.0782,2.079,2.0855,2.0882,2.0931,2.1,2.1032,2.1023,2.1132,2.1103,2.1106,2.111,2.1148,2.1157,2.1164,2.1064,2.1063,2.1063,0,0,2.0531,2.0567,2.0621,2.0656,2.0709,2.0733,2.0746,2.08,2.0818,2.0884,2.0892,2.0935,2.1019,2.1053,2.1082,2.1152,2.1154,2.1166,2.1193,2.1231,2.1238,2.1245,2.1269,2.1277,2.1172,2.1172,2.1172,0,2.0545,2.0622,2.0647,2.0701,2.0733,2.0744,2.0798,2.0831,2.0896,2.0917,2.0907,2.1012,2.1046,2.1123,2.114,2.1163,2.1177,2.116,2.1235,2.1242,2.1248,2.1272,2.1281,2.1173,2.1173,2.1173,2.1173,0,2.0637,2.0689,2.0726,2.079,2.0827,2.088,2.0912,2.0946,2.0957,2.0982,2.1048,2.1089,2.1145,2.1164,2.1175,2.1243,2.1236,2.123,2.1211,2.1258,2.128,2.1289,2.1175,2.1175,2.1174,2.1174,0,0,2.0695,2.0773,2.0786,2.0815,2.0874,2.0915,2.0968,2.1024,2.1052,2.1096,2.1141,2.1212,2.1207,2.1239,2.1254,2.1287,2.1339,2.1278,2.1279,2.1287,2.1415,2.1419,2.1429,2.1342,2.1344,2.1345,2.1411,0,2.0758,2.0855,2.0879,2.0961,2.101,2.1021,2.1068,2.1108,2.1133,2.1177,2.1204,2.1253,2.1244,2.1263,2.1297,2.1326,2.1365,2.1321,2.1382,2.1384,2.1369,2.1441,2.1445,2.1505,2.142,2.1421,2.1423,0,2.0845,2.0892,2.0979,2.1032,2.1053,2.1095,2.1148,2.119,2.1236,2.1252,2.1288,2.1299,2.1354,2.1333,2.1408,2.1378,2.1404,2.1422,2.1425,2.1431,2.1406,2.1448,2.1525,2.1534,2.1437,2.1436,2.1435,0,2.0878,2.0963,2.1027,2.1051,2.1114,2.1143,2.117,2.1215,2.1247,2.1293,2.1314,2.1365,2.1393,2.1431,2.1456,2.1438,2.1529,2.151,2.1543,2.1542,2.1561,2.1559,2.1642,2.1579,2.1578,2.1578,2.1578,0,2.0945,2.0998,2.1042,2.1081,2.114,2.1167,2.1224,2.1252,2.1291,2.1335,2.1348,2.1388,2.1419,2.1463,2.1482,2.1541,2.1554,2.1567,2.1571,2.1566,2.1564,2.1583,2.1579,2.1581,2.158,2.158,2.1579,0,2.0992,2.1024,2.1093,2.1148,2.1163,2.1204,2.125,2.1287,2.1313,2.1367,2.1382,2.1421,2.1473,2.1502,2.1568,2.1581,2.1647,2.1649,2.1632,2.1633,2.1665,2.1661,2.1762,2.1777,2.1704,2.1704,2.1705,0,2.1033,2.1074,2.1133,2.1164,2.1192,2.1241,2.1274,2.1302,2.1335,2.1391,2.1421,2.1475,2.1519,2.1603,2.1636,2.1686,2.169,2.1722,2.1697,2.169,2.1689,2.1687,2.169,2.1726,2.1726,2.1727,2.1727,0,2.1102,2.1116,2.1163,2.1216,2.1256,2.1298,2.1341,2.1365,2.14,2.1436,2.1491,2.1526,2.1593,2.1646,2.1699,2.1726,2.1732,2.1735,2.1745,2.1739,2.1727,2.1734,2.1643,2.1732,2.1732,2.1731,2.1731,2.1731,2.1146,2.1183,2.1231,2.1283,2.1318,2.1358,2.1395,2.1426,2.1472,2.153,2.1544,2.1601,2.1645,2.1717,2.1746,2.179,2.1784,2.1799,2.1802,2.1806,2.1806,2.1721,2.18,2.18,2.18,2.18,2.18,0,2.1215,2.1247,2.1295,2.1354,2.1395,2.1399,2.1446,2.148,2.1531,2.1572,2.1616,2.1678,2.173,2.1767,2.1819,2.1848,2.1852,2.186,2.1858,2.1864,2.1809,2.1795,2.1856,2.1856,2.1856,2.1856,2.1856,2.1856,2.1256,2.1319,2.1338,2.1417,2.1448,2.1505,2.1532,2.1568,2.1601,2.1671,2.1714,2.1739,2.1778,2.1834,2.188,2.189,2.1908,2.1916,2.1926,2.1874,2.1868,2.1862,2.1849,2.192,2.192,2.1977,2.1978,2.1978]}]]